QPF
0.01 0.03 0.03 0.03 0.03 0.02 0.03 0.04 0.04 0.03 0.04 0.05 0.07 0.07 0.06 0.07 0.07 0.08 0.07 0.07 0.06 0.05 0.05 0.04 0.03 0.04 0.04 0.04 0.04 0.03 0.04 0.04 0.04 0.03 0.02 0.02 0.02 0.02 0.02 0.02 0.03 0.04 0.04
0.01 0.02 0.02 0.02 0.02 0.02 0.02 0.03 0.03 0.04 0.03 0.03 0.05 0.06 0.05 0.05 0.06 0.08 0.08 0.07 0.07 0.06 0.06 0.05 0.05 0.05 0.05 0.06 0.05 0.03 0.03 0.03 0.02 0.02 0.01 0.01 0.01 0.01 0.02 0.02 0.02 0.03 0.03
0.03 0.03 0.03 0.03 0.02 0.01 0.02 0.03 0.05 0.05 0.04 0.04 0.05 0.05 0.05 0.06 0.08 0.10 0.11 0.09 0.08 0.07 0.07 0.06 0.06 0.05 0.05 0.06 0.05 0.04 0.04 0.04 0.03 0.01 0.01 0.01 0.02 0.03 0.03 0.03 0.03 0.03 0.03
0.04 0.04 0.03 0.03 0.02 0.02 0.02 0.02 0.03 0.03 0.04 0.06 0.07 0.06 0.06 0.05 0.06 0.06 0.07 0.07 0.07 0.08 0.09 0.07 0.05 0.04 0.02 0.03 0.04 0.04 0.05 0.04 0.03 0.02 0.02 0.03 0.03 0.03 0.03 0.03 0.03 0.04 0.05
0.04 0.05 0.05 0.03 0.03 0.02 0.02 0.02 0.02 0.03 0.05 0.05 0.04 0.04 0.05 0.05 0.05 0.07 0.07 0.06 0.07 0.06 0.06 0.06 0.06 0.07 0.07 0.05 0.04 0.03 0.04 0.04 0.04 0.03 0.03 0.03 0.03 0.04 0.04 0.03 0.04 0.04 0.04
0.04 0.04 0.04 0.05 0.04 0.03 0.03 0.03 0.04 0.05 0.06 0.05 0.04 0.04 0.04 0.03 0.04 0.05 0.06 0.06 0.06 0.04 0.04 0.05 0.06 0.10 0.13 0.14 0.12 0.10 0.08 0.07 0.06 0.05 0.05 0.05 0.06 0.06 0.07 0.07 0.07 0.08 0.07
0.04 0.04 0.04 0.05 0.06 0.06 0.05 0.04 0.05 0.05 0.05 0.04 0.04 0.04 0.03 0.03 0.03 0.03 0.04 0.05 0.06 0.05 0.04 0.04 0.05 0.06 0.08 0.10 0.12 0.13 0.13 0.12 0.11 0.10 0.08 0.06 0.05 0.05 0.06 0.08 0.09 0.10 0.10
0.05 0.06 0.05 0.06 0.09 0.10 0.10 0.09 0.08 0.07 0.05 0.04 0.04 0.03 0.02 0.03 0.04 0.03 0.03 0.02 0.04 0.07 0.07 0.07 0.06 0.06 0.07 0.07 0.07 0.08 0.08 0.08 0.07 0.05 0.05 0.05 0.04 0.04 0.04 0.06 0.07 0.07 0.06
0.05 0.05 0.04 0.06 0.08 0.09 0.08 0.08 0.08 0.05 0.03 0.03 0.04 0.04 0.04 0.03 0.04 0.04 0.03 0.02 0.02 0.04 0.06 0.07 0.08 0.09 0.10 0.11 0.10 0.10 0.10 0.10 0.09 0.08 0.08 0.07 0.06 0.05 0.05 0.05 0.05 0.05 0.05
0.05 0.04 0.04 0.04 0.06 0.06 0.05 0.05 0.04 0.03 0.02 0.03 0.03 0.04 0.05 0.05 0.04 0.03 0.03 0.02 0.03 0.04 0.05 0.06 0.09 0.10 0.10 0.09 0.09 0.10 0.12 0.13 0.12 0.12 0.10 0.09 0.07 0.05 0.05 0.03 0.03 0.04 0.04
0.03 0.03 0.04 0.06 0.05 0.05 0.04 0.04 0.04 0.04 0.03 0.03 0.03 0.02 0.03 0.04 0.06 0.06 0.05 0.03 0.04 0.08 0.10 0.09 0.08 0.09 0.08 0.07 0.06 0.05 0.05 0.07 0.08 0.06 0.04 0.03 0.02 0.02 0.02 0.02 0.02 0.03 0.03
0.03 0.04 0.05 0.05 0.05 0.04 0.04 0.04 0.04 0.03 0.02 0.03 0.03 0.02 0.02 0.02 0.03 0.03 0.03 0.02 0.02 0.02 0.03 0.03 0.03 0.03 0.03 0.03 0.02 0.02 0.03 0.03 0.03 0.03 0.01 0.01 0.01 0.01 0.01 0.02 0.02 0.03 0.03
0.03 0.07 0.11 0.10 0.10 0.07 0.04 0.03 0.03 0.02 0.02 0.01 0.02 0.02 0.02 0.02 0.02 0.01 0.01 0.02 0.02 0.02 0.01 0.01 0.01 0.01 0.01 0.01 0.01 0.01 0.01 0.01 0.01 0.00 0.01 0.01 0.01 0.01 0.01 0.02 0.03 0.02 0.03
0.04 0.05 0.10 0.11 0.11 0.09 0.05 0.03 0.02 0.02 0.02 0.01 0.01 0.01 0.01 0.01 0.01 0.02 0.01 0.02 0.02 0.02 0.02 0.01 0.01 0.01 0.01 0.01 0.01 0.01 0.01 0.00 0.00 0.01 0.01 0.01 0.01 0.01 0.01 0.01 0.02 0.02 0.02
0.04 0.03 0.03 0.04 0.06 0.06 0.05 0.03 0.03 0.03 0.03 0.02 0.02 0.02 0.01 0.01 0.02 0.03 0.03 0.03 0.03 0.03 0.03 0.03 0.03 0.02 0.02 0.02 0.02 0.01 0.01 0.00 0.01 0.01 0.01 0.01 0.01 0.02 0.02 0.02 0.02 0.02 0.02
0.03 0.02 0.02 0.03 0.03 0.04 0.04 0.05 0.06 0.05 0.04 0.03 0.03 0.02 0.02 0.02 0.01 0.02 0.01 0.02 0.02 0.03 0.03 0.02 0.03 0.03 0.03 0.03 0.03 0.02 0.02 0.01 0.01 0.01 0.02 0.02 0.02 0.02 0.02 0.02 0.02 0.02 0.02
0.05 0.04 0.04 0.04 0.03 0.03 0.04 0.03 0.03 0.03 0.03 0.02 0.02 0.02 0.01 0.02 0.02 0.02 0.02 0.02 0.02 0.02 0.02 0.02 0.03 0.03 0.02 0.01 0.02 0.02 0.02 0.02 0.02 0.01 0.01 0.01 0.01 0.01 0.01 0.01 0.01 0.01 0.01
0.04 0.04 0.03 0.04 0.03 0.03 0.03 0.03 0.02 0.02 0.01 0.01 0.01 0.01 0.01 0.01 0.01 0.01 0.01 0.01 0.01 0.01 0.01 0.02 0.03 0.03 0.02 0.02 0.01 0.01 0.01 0.01 0.01 0.01 0.01 0.01 0.01 0.01 0.01 0.01 0.01 0.02 0.03
0.02 0.02 0.03 0.03 0.03 0.02 0.02 0.02 0.02 0.01 0.01 0.01 0.01 0.01 0.01 0.01 0.01 0.01 0.01 0.01 0.01 0.01 0.02 0.02 0.03 0.03 0.03 0.02 0.02 0.01 0.01 0.01 0.01 0.01 0.01 0.01 0.01 0.01 0.01 0.01 0.02 0.02 0.03
0.01 0.02 0.02 0.03 0.03 0.03 0.03 0.02 0.02 0.02 0.02 0.01 0.01 0.01 0.00 0.00 0.00 0.00 0.00 0.00 0.01 0.01 0.01 0.02 0.02 0.02 0.02 0.02 0.01 0.01 0.01 0.01 0.01 0.01 0.01 0.01 0.01 0.01 0.00 0.00 0.01 0.01 0.02
0.01 0.01 0.02 0.02 0.03 0.03 0.03 0.03 0.02 0.02 0.02 0.01 0.01 0.01 0.00 0.00 0.01 0.01 0.01 0.01 0.01 0.01 0.01 0.01 0.01 0.01 0.02 0.01 0.01 0.01 0.01 0.01 0.01 0.01 0.01 0.02 0.02 0.02 0.02 0.02 0.02 0.01 0.01
0.02 0.01 0.01 0.01 0.02 0.02 0.03 0.02 0.02 0.02 0.01 0.01 0.01 0.01 0.01 0.00 0.00 0.00 0.01 0.01 0.01 0.01 0.01 0.01 0.01 0.01 0.01 0.01 0.01 0.01 0.02 0.02 0.02 0.02 0.02 0.02 0.02 0.02 0.02 0.02 0.02 0.02 0.01
0.02 0.01 0.01 0.01 0.01 0.02 0.02 0.03 0.02 0.02 0.01 0.01 0.01 0.01 0.00 0.00 0.00 0.00 0.00 0.00 0.00 0.01 0.01 0.01 0.01 0.01 0.01 0.01 0.01 0.01 0.01 0.02 0.02 0.02 0.02 0.02 0.02 0.02 0.02 0.02 0.02 0.02 0.02
0.01 0.01 0.02 0.02 0.02 0.03 0.03 0.02 0.02 0.02 0.01 0.01 0.01 0.00 0.00 0.00 0.01 0.01 0.01 0.01 0.01 0.01 0.01 0.01 0.01 0.02 0.01 0.01 0.01 0.01 0.01 0.01 0.02 0.02 0.02 0.02 0.02 0.02 0.02 0.01 0.01 0.01 0.02
0.00 0.01 0.01 0.01 0.02 0.02 0.02 0.01 0.01 0.01 0.00 0.00 0.01 0.01 0.01 0.01 0.01 0.01 0.01 0.01 0.01 0.01 0.01 0.01 0.01 0.01 0.01 0.01 0.01 0.01 0.01 0.02 0.02 0.02 0.02 0.02 0.02 0.02 0.01 0.01 0.01 0.01 0.02
0.01 0.01 0.01 0.00 0.01 0.01 0.01 0.01 0.01 0.01 0.02 0.02 0.01 0.01 0.01 0.01 0.01 0.01 0.01 0.01 0.01 0.01 0.01 0.01 0.01 0.01 0.01 0.01 0.02 0.02 0.02 0.03 0.02 0.02 0.01 0.01 0.02 0.02 0.02 0.01 0.01 0.02 0.01
MSLP
1015.79 1015.89 1015.99 1016.06 1016.06 1015.96 1015.79 1015.56 1015.31 1015.08 1014.89 1014.75 1014.67 1014.62 1014.58 1014.55 1014.51 1014.47 1014.44 1014.46 1014.52 1014.65 1014.83 1015.04 1015.26 1015.45 1015.59 1015.66 1015.67 1015.63 1015.59 1015.58 1015.64 1015.77 1015.99 1016.28 1016.60 1016.91 1017.16 1017.33 1017.39 1017.36 1017.23
1015.92 1015.99 1016.06 1016.10 1016.06 1015.94 1015.73 1015.47 1015.18 1014.89 1014.64 1014.43 1014.28 1014.17 1014.09 1014.03 1014.00 1013.98 1014.01 1014.08 1014.21 1014.40 1014.62 1014.87 1015.10 1015.29 1015.41 1015.46 1015.45 1015.40 1015.36 1015.36 1015.43 1015.60 1015.87 1016.23 1016.62 1017.02 1017.37 1017.64 1017.81 1017.88 1017.85
1016.19 1016.24 1016.29 1016.29 1016.21 1016.04 1015.79 1015.48 1015.13 1014.77 1014.45 1014.17 1013.94 1013.77 1013.64 1013.56 1013.52 1013.53 1013.59 1013.71 1013.90 1014.14 1014.41 1014.69 1014.95 1015.15 1015.27 1015.31 1015.29 1015.23 1015.17 1015.16 1015.23 1015.42 1015.71 1016.09 1016.54 1017.00 1017.43 1017.79 1018.06 1018.24 1018.31
1016.58 1016.62 1016.64 1016.59 1016.47 1016.25 1015.95 1015.58 1015.17 1014.76 1014.36 1014.01 1013.71 1013.47 1013.29 1013.17 1013.11 1013.12 1013.19 1013.34 1013.57 1013.85 1014.16 1014.47 1014.75 1014.97 1015.11 1015.16 1015.13 1015.07 1015.01 1014.99 1015.05 1015.22 1015.50 1015.89 1016.35 1016.84 1017.33 1017.76 1018.12 1018.40 1018.58
1017.04 1017.07 1017.05 1016.98 1016.81 1016.54 1016.19 1015.77 1015.31 1014.85 1014.40 1013.98 1013.62 1013.32 1013.08 1012.90 1012.80 1012.77 1012.83 1012.97 1013.19 1013.48 1013.81 1014.15 1014.45 1014.70 1014.87 1014.94 1014.94 1014.90 1014.84 1014.81 1014.86 1015.00 1015.26 1015.62 1016.07 1016.56 1017.07 1017.55 1017.98 1018.35 1018.64
1017.49 1017.51 1017.48 1017.37 1017.16 1016.86 1016.47 1016.02 1015.53 1015.03 1014.55 1014.09 1013.68 1013.32 1013.01 1012.77 1012.59 1012.50 1012.49 1012.59 1012.77 1013.03 1013.35 1013.69 1014.02 1014.30 1014.51 1014.63 1014.67 1014.66 1014.63 1014.61 1014.65 1014.76 1014.98 1015.31 1015.72 1016.19 1016.69 1017.20 1017.68 1018.12 1018.51
1017.88 1017.90 1017.85 1017.72 1017.48 1017.16 1016.75 1016.28 1015.79 1015.28 1014.78 1014.30 1013.86 1013.45 1013.08 1012.75 1012.49 1012.30 1012.20 1012.20 1012.31 1012.51 1012.79 1013.11 1013.44 1013.76 1014.01 1014.19 1014.30 1014.35 1014.36 1014.36 1014.40 1014.50 1014.68 1014.95 1015.32 1015.75 1016.24 1016.74 1017.25 1017.75 1018.21
1018.16 1018.18 1018.12 1017.97 1017.72 1017.38 1016.98 1016.52 1016.04 1015.55 1015.06 1014.58 1014.12 1013.67 1013.24 1012.84 1012.48 1012.17 1011.96 1011.84 1011.84 1011.95 1012.16 1012.45 1012.77 1013.10 1013.41 1013.65 1013.83 1013.95 1014.01 1014.06 1014.11 1014.20 1014.36 1014.59 1014.91 1015.30 1015.75 1016.25 1016.76 1017.29 1017.80
1018.31 1018.34 1018.28 1018.12 1017.86 1017.52 1017.12 1016.69 1016.24 1015.78 1015.32 1014.86 1014.40 1013.93 1013.46 1012.99 1012.53 1012.12 1011.78 1011.53 1011.41 1011.41 1011.54 1011.77 1012.07 1012.40 1012.74 1013.04 1013.29 1013.48 1013.61 1013.71 1013.80 1013.90 1014.04 1014.24 1014.52 1014.86 1015.28 1015.75 1016.27 1016.80 1017.34
1018.37 1018.40 1018.33 1018.15 1017.89 1017.56 1017.18 1016.78 1016.36 1015.95 1015.53 1015.11 1014.66 1014.19 1013.69 1013.16 1012.63 1012.12 1011.67 1011.30 1011.06 1010.95 1010.98 1011.14 1011.40 1011.72 1012.07 1012.42 1012.73 1012.98 1013.18 1013.33 1013.46 1013.58 1013.73 1013.91 1014.16 1014.48 1014.86 1015.30 1015.80 1016.32 1016.87
1018.36 1018.39 1018.30 1018.12 1017.85 1017.53 1017.16 1016.79 1016.41 1016.04 1015.66 1015.28 1014.86 1014.40 1013.89 1013.33 1012.75 1012.17 1011.63 1011.17 1010.82 1010.61 1010.54 1010.62 1010.82 1011.11 1011.46 1011.82 1012.16 1012.47 1012.72 1012.93 1013.10 1013.26 1013.42 1013.61 1013.84 1014.13 1014.49 1014.90 1015.37 1015.88 1016.42
1018.36 1018.37 1018.27 1018.07 1017.79 1017.46 1017.10 1016.74 1016.39 1016.06 1015.72 1015.37 1014.98 1014.54 1014.03 1013.47 1012.86 1012.24 1011.64 1011.11 1010.68 1010.38 1010.22 1010.22 1010.35 1010.60 1010.91 1011.26 1011.62 1011.95 1012.25 1012.50 1012.71 1012.91 1013.09 1013.30 1013.54 1013.82 1014.16 1014.55 1014.99 1015.47 1015.98
1018.42 1018.40 1018.27 1018.05 1017.75 1017.40 1017.04 1016.69 1016.35 1016.03 1015.71 1015.38 1015.02 1014.60 1014.11 1013.55 1012.94 1012.30 1011.67 1011.09 1010.60 1010.23 1010.01 1009.92 1009.98 1010.15 1010.41 1010.73 1011.07 1011.40 1011.72 1012.00 1012.26 1012.49 1012.72 1012.96 1013.22 1013.51 1013.84 1014.22 1014.63 1015.08 1015.56
1018.56 1018.52 1018.36 1018.10 1017.77 1017.41 1017.03 1016.67 1016.32 1016.00 1015.68 1015.36 1015.00 1014.58 1014.11 1013.56 1012.96 1012.32 1011.68 1011.08 1010.55 1010.13 1009.83 1009.67 1009.64 1009.73 1009.92 1010.18 1010.48 1010.80 1011.11 1011.42 1011.71 1011.99 1012.26 1012.54 1012.83 1013.15 1013.49 1013.86 1014.26 1014.68 1015.12
1018.81 1018.73 1018.53 1018.24 1017.89 1017.50 1017.10 1016.71 1016.35 1016.00 1015.66 1015.31 1014.94 1014.52 1014.04 1013.50 1012.90 1012.27 1011.63 1011.02 1010.46 1009.99 1009.63 1009.39 1009.28 1009.28 1009.38 1009.56 1009.81 1010.09 1010.39 1010.71 1011.03 1011.35 1011.67 1012.01 1012.35 1012.70 1013.07 1013.45 1013.84 1014.25 1014.66
1019.12 1019.00 1018.78 1018.47 1018.10 1017.69 1017.27 1016.85 1016.45 1016.06 1015.68 1015.29 1014.88 1014.43 1013.93 1013.37 1012.77 1012.14 1011.50 1010.87 1010.29 1009.78 1009.36 1009.05 1008.84 1008.75 1008.76 1008.85 1009.03 1009.26 1009.54 1009.86 1010.21 1010.57 1010.95 1011.34 1011.74 1012.15 1012.55 1012.96 1013.36 1013.77 1014.17
1019.44 1019.30 1019.06 1018.75 1018.37 1017.95 1017.51 1017.06 1016.63 1016.19 1015.76 1015.31 1014.84 1014.34 1013.80 1013.21 1012.59 1011.95 1011.29 1010.64 1010.03 1009.48 1009.00 1008.61 1008.32 1008.14 1008.05 1008.06 1008.16 1008.34 1008.59 1008.91 1009.27 1009.67 1010.11 1010.57 1011.03 1011.49 1011.95 1012.40 1012.83 1013.24 1013.64
1019.71 1019.56 1019.33 1019.02 1018.65 1018.24 1017.80 1017.34 1016.87 1016.40 1015.90 1015.40 1014.86 1014.30 1013.70 1013.07 1012.41 1011.73 1011.05 1010.37 1009.73 1009.13 1008.59 1008.14 1007.76 1007.48 1007.31 1007.23 1007.26 1007.38 1007.60 1007.90 1008.28 1008.71 1009.20 1009.71 1010.24 1010.77 1011.28 1011.78 1012.24 1012.68 1013.10
1019.88 1019.73 1019.52 1019.24 1018.90 1018.52 1018.10 1017.65 1017.17 1016.66 1016.12 1015.55 1014.96 1014.33 1013.67 1012.98 1012.27 1011.55 1010.83 1010.12 1009.44 1008.80 1008.21 1007.68 1007.23 1006.87 1006.61 1006.45 1006.41 1006.47 1006.65 1006.93 1007.31 1007.76 1008.28 1008.84 1009.43 1010.01 1010.58 1011.13 1011.64 1012.12 1012.56
1019.92 1019.79 1019.61 1019.37 1019.08 1018.75 1018.37 1017.94 1017.47 1016.95 1016.39 1015.78 1015.13 1014.44 1013.73 1012.99 1012.24 1011.48 1010.72 1009.97 1009.25 1008.57 1007.93 1007.34 1006.83 1006.39 1006.05 1005.82 1005.71 1005.72 1005.85 1006.10 1006.46 1006.91 1007.45 1008.04 1008.66 1009.28 1009.90 1010.49 1011.05 1011.57 1012.05
1019.83 1019.73 1019.59 1019.41 1019.18 1018.91 1018.59 1018.21 1017.76 1017.26 1016.69 1016.06 1015.38 1014.65 1013.90 1013.12 1012.33 1011.54 1010.76 1009.98 1009.23 1008.51 1007.83 1007.20 1006.63 1006.14 1005.73 1005.43 1005.25 1005.20 1005.27 1005.48 1005.80 1006.24 1006.76 1007.36 1007.99 1008.64 1009.29 1009.91 1010.51 1011.06 1011.58
1019.65 1019.57 1019.48 1019.36 1019.20 1019.00 1018.74 1018.41 1018.01 1017.53 1016.98 1016.36 1015.67 1014.94 1014.17 1013.38 1012.57 1011.76 1010.96 1010.18 1009.42 1008.67 1007.97 1007.31 1006.70 1006.16 1005.70 1005.34 1005.09 1004.97 1004.99 1005.14 1005.41 1005.80 1006.29 1006.86 1007.48 1008.13 1008.79 1009.43 1010.04 1010.62 1011.16
1019.40 1019.36 1019.30 1019.23 1019.14 1019.00 1018.80 1018.53 1018.18 1017.75 1017.23 1016.64 1015.97 1015.25 1014.50 1013.71 1012.92 1012.12 1011.33 1010.55 1009.79 1009.05 1008.34 1007.66 1007.03 1006.46 1005.96 1005.56 1005.26 1005.08 1005.02 1005.10 1005.31 1005.64 1006.07 1006.59 1007.17 1007.79 1008.42 1009.06 1009.67 1010.26 1010.81
1019.15 1019.12 1019.09 1019.06 1019.01 1018.92 1018.78 1018.56 1018.26 1017.88 1017.41 1016.85 1016.23 1015.54 1014.82 1014.07 1013.31 1012.54 1011.78 1011.03 1010.30 1009.58 1008.89 1008.22 1007.59 1007.01 1006.49 1006.05 1005.70 1005.47 1005.35 1005.36 1005.49 1005.74 1006.10 1006.54 1007.06 1007.63 1008.22 1008.82 1009.42 1009.99 1010.54
1018.89 1018.87 1018.86 1018.85 1018.82 1018.76 1018.65 1018.48 1018.22 1017.88 1017.46 1016.95 1016.38 1015.75 1015.08 1014.38 1013.67 1012.96 1012.25 1011.55 1010.87 1010.19 1009.54 1008.90 1008.29 1007.72 1007.20 1006.74 1006.37 1006.09 1005.92 1005.86 1005.91 1006.08 1006.35 1006.71 1007.15 1007.64 1008.17 1008.72 1009.27 1009.81 1010.33
1018.63 1018.61 1018.60 1018.59 1018.57 1018.52 1018.43 1018.27 1018.05 1017.74 1017.36 1016.91 1016.39 1015.82 1015.22 1014.59 1013.95 1013.31 1012.67 1012.04 1011.42 1010.80 1010.20 1009.62 1009.05 1008.51 1008.01 1007.56 1007.17 1006.86 1006.65 1006.53 1006.51 1006.60 1006.78 1007.05 1007.39 1007.80 1008.25 1008.73 1009.22 1009.71 1010.18
Thickness
5757 5754 5751 5748 5745 5742 5740 5738 5736 5735 5734 5732 5731 5730 5728 5727 5725 5724 5723 5721 5720 5719 5719 5718 5716 5716 5714 5713 5712 5710 5707 5704 5700 5697 5694 5692 5690 5689 5687 5685 5684 5683 5681
5757 5753 5750 5747 5744 5741 5738 5736 5734 5733 5731 5730 5728 5726 5725 5723 5722 5720 5719 5717 5716 5714 5714 5713 5712 5711 5709 5708 5706 5704 5702 5700 5696 5691 5687 5685 5683 5682 5680 5678 5676 5674 5672
5756 5752 5748 5745 5742 5740 5737 5735 5732 5730 5728 5726 5725 5722 5721 5719 5717 5716 5714 5713 5711 5710 5709 5708 5706 5705 5703 5702 5700 5698 5696 5694 5691 5687 5683 5679 5677 5674 5672 5669 5667 5665 5663
5754 5750 5746 5743 5740 5738 5735 5733 5730 5727 5725 5722 5720 5718 5716 5715 5713 5711 5709 5708 5706 5705 5704 5703 5701 5700 5698 5696 5694 5692 5690 5687 5683 5680 5676 5673 5669 5666 5664 5661 5658 5656 5654
5751 5747 5744 5742 5738 5735 5732 5729 5726 5724 5721 5718 5716 5713 5712 5710 5708 5706 5705 5703 5701 5699 5698 5697 5695 5694 5693 5690 5689 5686 5683 5680 5676 5673 5669 5665 5661 5658 5656 5653 5651 5647 5645
5748 5744 5742 5739 5735 5732 5728 5725 5721 5719 5716 5714 5711 5709 5706 5705 5703 5701 5699 5697 5695 5693 5691 5690 5689 5687 5685 5683 5682 5679 5677 5673 5669 5666 5662 5658 5655 5652 5648 5646 5642 5640 5637
5745 5742 5738 5734 5731 5727 5723 5719 5716 5713 5711 5708 5705 5703 5701 5699 5697 5696 5694 5691 5689 5687 5685 5683 5682 5679 5677 5675 5673 5671 5668 5665 5663 5660 5656 5652 5649 5646 5642 5639 5635 5633 5630
5741 5738 5735 5730 5726 5722 5718 5714 5711 5707 5704 5701 5699 5697 5695 5693 5691 5690 5688 5686 5683 5680 5678 5676 5674 5671 5670 5667 5665 5662 5659 5656 5653 5651 5649 5645 5642 5638 5635 5632 5628 5623 5619
5737 5734 5730 5725 5721 5716 5712 5708 5705 5702 5698 5695 5693 5691 5689 5686 5684 5683 5681 5679 5675 5672 5670 5668 5666 5664 5662 5660 5657 5653 5650 5647 5645 5642 5639 5636 5633 5629 5626 5622 5618 5615 5611
5733 5729 5725 5720 5715 5710 5706 5702 5698 5695 5691 5688 5686 5683 5682 5679 5677 5675 5673 5671 5668 5665 5662 5660 5658 5656 5653 5651 5648 5645 5641 5638 5635 5633 5630 5627 5623 5620 5616 5613 5610 5606 5602
5729 5724 5719 5715 5710 5705 5700 5696 5692 5688 5684 5681 5678 5675 5673 5671 5669 5667 5665 5663 5660 5657 5654 5651 5649 5646 5644 5641 5639 5635 5632 5629 5626 5623 5620 5617 5614 5610 5607 5603 5600 5597 5594
5723 5718 5713 5708 5704 5699 5694 5689 5685 5681 5677 5673 5670 5667 5665 5662 5660 5658 5656 5654 5651 5648 5645 5642 5639 5637 5634 5631 5628 5625 5623 5620 5617 5614 5611 5607 5604 5601 5597 5593 5590 5587 5584
5715 5710 5706 5701 5697 5692 5687 5682 5678 5674 5669 5666 5663 5660 5657 5654 5652 5650 5648 5645 5642 5639 5636 5633 5631 5628 5625 5622 5618 5616 5613 5610 5607 5604 5600 5596 5593 5590 5586 5583 5580 5577 5574
5707 5702 5698 5693 5688 5683 5679 5675 5671 5666 5663 5659 5656 5652 5649 5646 5644 5641 5639 5636 5634 5631 5628 5625 5622 5618 5615 5612 5608 5605 5602 5599 5596 5593 5589 5586 5582 5579 5577 5574 5571 5568 5565
5699 5694 5690 5685 5680 5675 5670 5665 5662 5658 5655 5652 5649 5646 5642 5639 5636 5633 5631 5628 5625 5623 5619 5616 5612 5609 5605 5602 5599 5595 5592 5589 5586 5583 5580 5576 5573 5571 5567 5564 5560 5558 5555
5690 5685 5681 5677 5672 5667 5662 5656 5652 5649 5647 5644 5641 5637 5634 5631 5628 5625 5622 5619 5616 5613 5611 5607 5603 5599 5596 5593 5590 5586 5583 5579 5576 5573 5570 5567 5564 5561 5558 5554 5551 5548 5546
5683 5678 5673 5669 5664 5659 5655 5650 5645 5641 5638 5635 5632 5629 5625 5622 5619 5617 5614 5610 5607 5604 5601 5598 5594 5590 5587 5583 5580 5577 5573 5569 5566 5563 5560 5557 5554 5551 5548 5545 5542 5539 5537
5675 5671 5666 5661 5657 5652 5648 5644 5640 5636 5631 5627 5623 5620 5617 5614 5611 5608 5605 5601 5597 5594 5591 5588 5584 5580 5577 5574 5570 5567 5563 5560 5556 5553 5550 5547 5544 5541 5538 5536 5533 5530 5527
5667 5663 5658 5654 5649 5645 5641 5636 5632 5628 5623 5619 5615 5611 5608 5605 5602 5598 5595 5593 5590 5585 5581 5578 5574 5571 5567 5564 5561 5557 5554 5550 5547 5543 5540 5537 5534 5531 5529 5527 5524 5520 5518
5658 5655 5651 5647 5642 5637 5633 5628 5624 5620 5616 5611 5608 5604 5600 5597 5594 5590 5587 5584 5581 5577 5573 5569 5566 5562 5559 5555 5552 5548 5545 5542 5538 5534 5531 5528 5525 5522 5520 5518 5515 5513 5510
5650 5646 5643 5639 5635 5630 5625 5621 5616 5612 5608 5604 5600 5596 5593 5590 5587 5583 5579 5576 5573 5569 5565 5562 5558 5554 5550 5546 5543 5539 5536 5532 5529 5525 5522 5519 5516 5514 5511 5508 5506 5503 5501
5642 5638 5635 5631 5627 5622 5618 5613 5609 5604 5601 5597 5592 5588 5584 5582 5579 5575 5572 5568 5565 5561 5557 5554 5550 5546 5542 5538 5534 5531 5528 5524 5521 5517 5514 5511 5508 5505 5503 5500 5497 5494 5492
5634 5630 5626 5622 5618 5613 5609 5605 5601 5597 5593 5589 5585 5581 5577 5574 5571 5567 5564 5560 5556 5552 5549 5545 5541 5537 5534 5530 5526 5523 5520 5516 5513 5509 5506 5503 5500 5497 5494 5492 5489 5486 5484
5626 5622 5618 5614 5609 5605 5601 5597 5593 5589 5586 5582 5578 5574 5570 5566 5563 5559 5556 5552 5548 5544 5540 5537 5533 5529 5526 5522 5519 5515 5512 5508 5505 5501 5498 5495 5492 5490 5486 5483 5481 5478 5476
5618 5614 5610 5605 5601 5597 5593 5589 5585 5581 5578 5574 5570 5567 5563 5559 5555 5552 5548 5544 5540 5536 5532 5529 5525 5522 5518 5514 5511 5507 5504 5501 5497 5493 5490 5487 5484 5481 5478 5475 5472 5470 5467
5610 5606 5602 5598 5593 5589 5585 5581 5577 5574 5570 5567 5563 5559 5555 5552 5548 5545 5541 5537 5533 5529 5525 5521 5518 5514 5510 5507 5503 5500 5496 5493 5489 5486 5482 5479 5476 5473 5469 5467 5464 5461 5459